Total_Precipitation_Accumulation
0.40 0.49 0.57 0.64 0.67 0.63 0.72 0.77 0.75 0.67 0.73 0.79 0.68 0.63 0.68 0.64 0.53 0.43 0.29 0.23 0.18 0.13 0.11 0.11 0.11 0.12 0.16 0.19 0.23 0.29 0.37 0.49 0.64 0.80 0.99 1.20 1.41 1.60
0.51 0.56 0.59 0.66 0.75 0.68 0.73 0.78 0.77 0.78 0.81 0.74 0.63 0.61 0.57 0.42 0.32 0.26 0.17 0.15 0.12 0.10 0.09 0.09 0.10 0.10 0.11 0.14 0.15 0.17 0.20 0.25 0.31 0.38 0.48 0.66 0.87 1.14
0.67 0.70 0.73 0.75 0.78 0.77 0.83 0.84 0.76 0.81 0.77 0.63 0.67 0.71 0.59 0.40 0.24 0.18 0.12 0.10 0.08 0.09 0.10 0.10 0.10 0.09 0.09 0.11 0.12 0.14 0.15 0.16 0.20 0.22 0.24 0.28 0.36 0.48
0.74 0.96 0.98 0.98 0.89 0.82 0.90 0.88 0.84 0.94 0.87 0.73 0.80 0.78 0.71 0.53 0.35 0.23 0.12 0.07 0.04 0.07 0.08 0.09 0.09 0.07 0.06 0.06 0.07 0.08 0.08 0.08 0.09 0.09 0.09 0.10 0.13 0.17
0.76 0.89 1.01 1.12 1.02 0.92 0.89 0.90 0.93 1.01 0.96 0.84 0.84 0.93 0.90 0.67 0.43 0.24 0.13 0.08 0.04 0.05 0.05 0.05 0.06 0.06 0.06 0.05 0.04 0.04 0.04 0.05 0.06 0.06 0.05 0.05 0.05 0.06
0.68 0.62 0.74 0.99 1.09 1.01 0.90 0.85 0.90 0.94 0.93 0.93 0.97 1.05 1.01 0.86 0.58 0.31 0.18 0.10 0.05 0.03 0.04 0.03 0.04 0.04 0.04 0.04 0.04 0.05 0.05 0.06 0.05 0.05 0.06 0.06 0.05 0.04
0.38 0.36 0.42 0.61 0.89 1.05 1.01 0.90 0.88 0.85 0.86 0.93 1.00 1.05 0.98 0.89 0.68 0.41 0.23 0.13 0.08 0.04 0.03 0.02 0.02 0.02 0.01 0.02 0.02 0.02 0.02 0.03 0.04 0.05 0.05 0.04 0.04 0.04
0.24 0.26 0.26 0.29 0.42 0.65 0.86 0.97 1.01 0.93 0.86 0.89 1.01 1.03 0.92 0.80 0.67 0.46 0.25 0.13 0.10 0.09 0.06 0.06 0.04 0.03 0.01 0.00 0.01 0.01 0.01 0.01 0.01 0.01 0.01 0.01 0.01 0.01
0.23 0.25 0.19 0.17 0.24 0.31 0.45 0.61 0.76 0.83 0.85 0.89 0.94 1.01 1.01 0.93 0.75 0.53 0.32 0.18 0.10 0.07 0.07 0.07 0.04 0.02 0.01 0.01 0.02 0.01 0.01 0.01 0.01 0.01 0.00 0.00 0.00 0.00
0.25 0.25 0.22 0.20 0.22 0.27 0.33 0.36 0.43 0.52 0.58 0.64 0.76 0.91 1.04 1.05 0.93 0.75 0.53 0.31 0.16 0.09 0.05 0.06 0.05 0.04 0.02 0.02 0.02 0.01 0.01 0.00 0.00 0.00 0.00 0.00 0.00 0.01
0.26 0.26 0.26 0.24 0.22 0.21 0.28 0.31 0.33 0.38 0.44 0.53 0.61 0.78 1.00 1.10 1.03 0.84 0.59 0.36 0.23 0.13 0.05 0.04 0.05 0.05 0.06 0.04 0.01 0.01 0.01 0.00 0.00 0.00 0.00 0.00 0.01 0.01
0.37 0.37 0.31 0.29 0.26 0.19 0.23 0.27 0.27 0.31 0.36 0.40 0.48 0.57 0.69 0.86 1.00 0.79 0.54 0.35 0.24 0.15 0.06 0.02 0.03 0.03 0.05 0.03 0.01 0.00 0.00 0.00 0.00 0.00 0.00 0.01 0.02 0.02
0.48 0.47 0.43 0.32 0.23 0.19 0.21 0.26 0.24 0.29 0.37 0.41 0.43 0.50 0.60 0.70 0.78 0.79 0.59 0.35 0.22 0.13 0.06 0.02 0.02 0.02 0.01 0.01 0.00 0.00 0.00 0.00 0.00 0.00 0.00 0.01 0.01 0.04
0.62 0.63 0.61 0.48 0.32 0.25 0.22 0.23 0.21 0.23 0.35 0.43 0.48 0.51 0.54 0.61 0.68 0.72 0.67 0.51 0.30 0.19 0.10 0.05 0.02 0.01 0.01 0.00 0.00 0.00 0.00 0.00 0.00 0.01 0.01 0.01 0.01 0.05
0.64 0.72 0.66 0.56 0.47 0.36 0.29 0.25 0.22 0.21 0.28 0.37 0.43 0.46 0.47 0.49 0.62 0.76 0.77 0.67 0.49 0.29 0.16 0.09 0.04 0.02 0.01 0.00 0.00 0.00 0.00 0.00 0.00 0.00 0.01 0.01 0.02 0.04
0.58 0.60 0.62 0.62 0.61 0.54 0.42 0.32 0.25 0.23 0.25 0.30 0.38 0.47 0.55 0.60 0.63 0.69 0.71 0.64 0.55 0.38 0.20 0.10 0.05 0.02 0.01 0.00 0.00 0.00 0.00 0.00 0.00 0.00 0.00 0.01 0.02 0.03
0.60 0.67 0.66 0.68 0.67 0.65 0.57 0.44 0.35 0.31 0.29 0.30 0.39 0.50 0.57 0.60 0.60 0.60 0.59 0.50 0.41 0.32 0.22 0.12 0.06 0.03 0.02 0.01 0.01 0.00 0.00 0.00 0.00 0.00 0.00 0.00 0.01 0.03
0.49 0.65 0.72 0.73 0.74 0.71 0.66 0.57 0.48 0.40 0.33 0.33 0.39 0.49 0.54 0.56 0.54 0.54 0.53 0.45 0.34 0.27 0.21 0.13 0.07 0.04 0.02 0.01 0.01 0.00 0.00 0.00 0.00 0.00 0.00 0.00 0.01 0.02
0.36 0.49 0.61 0.66 0.71 0.74 0.71 0.62 0.55 0.47 0.39 0.38 0.42 0.47 0.52 0.53 0.50 0.46 0.48 0.45 0.36 0.27 0.21 0.15 0.08 0.04 0.03 0.01 0.00 0.00 0.00 0.00 0.00 0.00 0.00 0.00 0.00 0.00
0.26 0.34 0.44 0.54 0.64 0.73 0.73 0.67 0.63 0.58 0.48 0.43 0.48 0.50 0.50 0.51 0.48 0.41 0.38 0.38 0.34 0.28 0.22 0.15 0.10 0.05 0.02 0.02 0.01 0.00 0.00 0.00 0.00 0.00 0.00 0.00 0.00 0.00
0.22 0.26 0.32 0.41 0.54 0.65 0.71 0.72 0.71 0.63 0.51 0.46 0.47 0.52 0.49 0.48 0.46 0.38 0.34 0.37 0.33 0.26 0.21 0.14 0.09 0.07 0.04 0.03 0.01 0.00 0.00 0.00 0.00 0.00 0.00 0.00 0.00 0.00
0.26 0.27 0.30 0.37 0.48 0.59 0.65 0.68 0.71 0.64 0.53 0.47 0.46 0.50 0.49 0.46 0.43 0.37 0.31 0.30 0.27 0.22 0.19 0.15 0.12 0.10 0.09 0.06 0.02 0.01 0.00 0.00 0.00 0.00 0.00 0.00 0.00 0.00
0.30 0.29 0.30 0.34 0.42 0.51 0.55 0.58 0.62 0.59 0.50 0.44 0.43 0.46 0.48 0.46 0.44 0.39 0.31 0.24 0.23 0.22 0.23 0.21 0.18 0.14 0.10 0.06 0.03 0.01 0.01 0.01 0.00 0.00 0.00 0.00 0.00 0.00